Вернуться в каталог

COSMOS 1741

АктивенВоенныеLEO
NORAD 16681·PAYLOAD·🇷🇺 Russia

Запущен Apr 17, 1986 с Plesetsk Cosmodrome

Loading…

Ближайшие Пролёты (ближайшие 24 часа)

TLE

СвежийSource: Space-Track

Эпоха: Sep 14, 2026, 08:54 UTC

1 16681U 86030A   26257.37084761  .00000053  00000-0  28321-4 0  9995
2 16681  74.0212 244.3935 0018053 148.8190 211.4037 14.33949887111993

Отслеживайте COSMOS 1741 в реальном времени с AllMySat

Download on the App Store